Location: Nelson
(41.2830°S, 173.2830°E)
Time: 00:20:33
(UTC+13:00)

ATLAS CENTAUR R/B - Pass Details

Date: 29 September 2021
Orbit: 459 x 683 km, 64.6° (Epoch: 22 October)

Event Time Altitude Azimuth Distance (km) Brightness Sun altitude
Rises 06:05:14 0° 199° (SSW) 2,650 4.8 -11.9°
Reaches altitude 10° 06:08:14 10° 176° (S) 1,716 4.1 -11.3°
Maximum altitude 06:10:32 15° 138° (SE) 1,390 4.2 -10.9°
Drops below altitude 10° 06:12:46 10° 101° (E) 1,658 5.4 -10.5°
Sets 06:15:34 0° 76° (ENE) 2,507 6.0 -10.0°
